Preview of NWS' New Version of Forecast
This preview is not operational and should not be used for support decisions.

Regional Weather Roundup (RWR)

Issued by National Weather Service (NWS)

                            
472 
ASUS43 KLSX 261007
RWRMO 

WEATHER SUMMARY FOR MISSOURI
NATIONAL WEATHER SERVICE SPRINGFIELD MO
500 AM CDT TUE MAR 26 2019

NOTE: "FAIR" INDICATES FEW OR NO CLOUDS BELOW 12,000 FEET WITH NO
       SIGNIFICANT WEATHER AND/OR OBSTRUCTIONS TO VISIBILITY.
       CURRENT SKY AND/OR WEATHER CONDITIONS ARE NOT AVAILABLE FOR
       CHILLICOTHE AND FARMINGTON.

MOZ001>031-035>038-043-044-053-054-261100-
...NORTHERN AND WESTERN MISSOURI...
  
CITY           SKY/WX    TMP DP  RH WIND       PRES   REMARKS
KANSAS CTY INT PTCLDY    37  35  92 NE5       30.34S FOG              
KANSAS C DTWN  CLEAR     42  35  76 CALM      30.34S                  
LEE'S SUMMIT   CLOUDY    40  36  86 CALM      30.34S                  
ST JOSEPH      MOCLDY    37  35  92 CALM      30.36S                  
CHILLICOTHE      N/A     37  35  92 CALM      30.36F                  
KIRKSVILLE     CLOUDY    38  32  79 E3        30.38R                  
     
$$
MOZ066>068-077>081-088>096-101>105-261100-
...SOUTHWEST MISSOURI...
  
CITY           SKY/WX    TMP DP  RH WIND       PRES   REMARKS
SPRINGFIELD    FOG       39  37  92 CALM      30.30S VSB 3/4          
JOPLIN         FOG       37  37 100 CALM      30.33S VSB 1/4          
BRANSON        PTCLDY    41  41 100 CALM      30.32R FOG              
               
$$
MOZ032>034-039>042-045>050-055>058-069>072-261100-
...CENTRAL MISSOURI...  
  
CITY           SKY/WX    TMP DP  RH WIND       PRES   REMARKS
COLUMBIA       CLOUDY    42  33  70 NE6       30.35S                  
JEFFERSON CITY CLOUDY    44  32  62 NE7       30.36R                  
ROLLA          CLOUDY    39  32  76 CALM      30.33R                  
SEDALIA        CLEAR     40  35  83 E6        30.34F                  
WHITEMAN AFB   CLEAR     40  37  87 CALM      30.31R                  
WARRENSBURG    PTCLDY    39  36  87 NE5       30.35S                  
OSAGE BEACH    CLOUDY    42  37  82 NE7       30.35R                  
               
$$
MOZ051-052-059>065-261100-
...EAST CENTRAL MISSOURI...
  
CITY           SKY/WX    TMP DP  RH WIND       PRES   REMARKS
ST LOUIS INTL  CLEAR     34  19  54 N6        30.36R WCI  29          
SPIRIT OF STL  PTCLDY    37  24  59 N7        30.36R                  
ST CHARLES     CLEAR     34  23  64 NE9       30.37R WCI  27          
                   
$$
MOZ072>076-082>087-097>100-106>115-261100-
...SOUTH CENTRAL AND SOUTHEAST MISSOURI...
  
CITY           SKY/WX    TMP DP  RH WIND       PRES   REMARKS
CAPE GIRARDEAU FAIR      40  33  76 N6        30.29S                  
FARMINGTON     CLEAR     37  32  82 NW3       30.32R                  
POPLAR BLUFF   FAIR      42  37  82 NE7       30.29S                  
WEST PLAINS    MOCLDY    38  35  89 NE3       30.31R                  
                                       
$$